Tracking 30995 objects as of 5-Jul-2025
HD Live streaming from Space Station
objects crossing your sky now

FALCON 9 DEB

Track FALCON 9 DEB now!
10-day predictions


NORAD ID: 48610
Int'l Code: 2021-041BK
Perigee: 529.8 km
Apogee: 547.3 km
Inclination: 53.0 °
Period: 95.3 minutes
Semi major axis: 6909 km
RCS: Unknown
Launch date: May 15, 2021
Source: United States (US)
Launch site: AIR FORCE EASTERN TEST RANGE (AFETR)

Note: This is SATELLITE DEBRIS
Your satellite tracking list
STARLINK-2389
Track 1 satellite(s)




NASA's NSSDC Master Catalog

Two Line Element Set (TLE):
1 48610U 21041BK  25186.43173618  .00002235  00000-0  14749-3 0  9992
2 48610  53.0220 208.8285 0012696 143.7735 216.4118 15.11573671227191
Source of the keplerian elements: AFSPC